TimeCDT,TemperatureF,Dew PointF,Humidity,Sea Level PressureIn,VisibilityMPH,Wind Direction,Wind SpeedMPH,Gust SpeedMPH,PrecipitationIn,Events,Conditions,WindDirDegrees,DateUTC
12:53 AM,70.0,66.0,87,29.94,7.0,Calm,Calm,-,N/A,,Clear,0,2004-07-19 05:53:00
1:53 AM,71.1,66.9,87,29.93,7.0,Calm,Calm,-,N/A,,Clear,0,2004-07-19 06:53:00
2:53 AM,70.0,66.9,90,29.93,7.0,Calm,Calm,-,N/A,,Clear,0,2004-07-19 07:53:00
3:53 AM,68.0,66.0,93,29.94,7.0,Calm,Calm,-,N/A,,Clear,0,2004-07-19 08:53:00
4:53 AM,69.1,66.9,93,29.94,7.0,Calm,Calm,-,N/A,,Clear,0,2004-07-19 09:53:00
5:53 AM,68.0,66.0,93,29.95,7.0,Calm,Calm,-,N/A,,Clear,0,2004-07-19 10:53:00
6:53 AM,68.0,66.0,93,29.96,6.0,Calm,Calm,-,N/A,,Clear,0,2004-07-19 11:53:00
7:53 AM,72.0,66.9,84,29.98,7.0,NNW,5.8,-,N/A,,Clear,330,2004-07-19 12:53:00
8:53 AM,75.2,66.2,73,29.98,7.0,North,3.5,-,N/A,,Clear,350,2004-07-19 13:53:00
9:53 AM,78.1,68.0,71,29.99,7.0,Calm,Calm,-,N/A,,Clear,0,2004-07-19 14:53:00
10:53 AM,81.0,66.9,62,29.99,7.0,Calm,Calm,-,N/A,,Scattered Clouds,0,2004-07-19 15:53:00
11:53 AM,82.9,69.1,63,29.99,7.0,WSW,3.5,-,N/A,,Scattered Clouds,240,2004-07-19 16:53:00
12:53 PM,82.9,68.0,60,29.97,10.0,Variable,3.5,-,N/A,,Scattered Clouds,0,2004-07-19 17:53:00
1:53 PM,86.0,68.0,55,29.95,7.0,Calm,Calm,-,N/A,,Scattered Clouds,0,2004-07-19 18:53:00
2:53 PM,84.0,68.0,58,29.94,7.0,South,5.8,-,N/A,,Scattered Clouds,190,2004-07-19 19:53:00
3:53 PM,86.0,69.1,57,29.93,7.0,Variable,3.5,-,N/A,,Scattered Clouds,0,2004-07-19 20:53:00
4:53 PM,86.0,68.0,55,29.92,7.0,SSE,8.1,-,N/A,,Scattered Clouds,150,2004-07-19 21:53:00
5:53 PM,86.0,68.0,55,29.92,7.0,SSE,8.1,-,N/A,,Scattered Clouds,150,2004-07-19 22:53:00
6:53 PM,82.9,68.0,60,29.91,10.0,SSE,8.1,-,N/A,,Clear,150,2004-07-19 23:53:00
7:53 PM,80.1,69.1,69,29.92,7.0,South,5.8,-,N/A,,Clear,170,2004-07-20 00:53:00
8:53 PM,75.9,69.1,79,29.92,7.0,South,4.6,-,N/A,,Clear,170,2004-07-20 01:53:00
9:53 PM,75.0,68.0,79,29.93,7.0,SSW,5.8,-,N/A,,Clear,200,2004-07-20 02:53:00
10:53 PM,75.0,68.0,79,29.93,7.0,Calm,Calm,-,N/A,,Clear,0,2004-07-20 03:53:00
11:53 PM,73.9,68.0,82,29.93,7.0,Calm,Calm,-,N/A,,Clear,0,2004-07-20 04:53:00